Hourly Data Report for September 29, 2017

All times are specified in Local Standard Time (LST). Add 1 hour to adjust for Daylight Saving Time where and when it is observed.

ALERT CLIMATE
NUNAVUT

82°30'00.000" N
62°20'00.000" W
65.40 m
2400305
71355
ZLT

Download Data

Hourly Data (September 2017)
Hourly Data Report for September 29, 2017
Temp Definition
°C
Dew Point Temp Definition
°C
Rel Hum Definition
%
Wind Dir Definition
10's deg

Wind Spd Definition
km/h
Visibility Definition
km
Stn Press Definition
kPa
Hmdx Definition


Wind Chill Definition


Weather Definition


TIME
00:00 -10.9 -11.5 96 23 1   100.06   -12 LegendNANA
01:00 -11.6 -12.3 94   0   100.13     LegendNANA
02:00 -12.7 -13.5 93 6 6   100.20   -17 LegendNANA
03:00 -13.9 -15.0 91   0   100.30     LegendNANA
04:00 -13.9 -15.1 91 27 3   100.38   -16 LegendNANA
05:00 -13.7 -14.8 91 25 1   100.45   -14 LegendNANA
06:00 -13.7 -14.9 91 10 2   100.51   -15 LegendNANA
07:00 -14.6 -15.9 90 8 6   100.52   -19 LegendNANA
08:00 -16.3 -18.0 87 27 1   100.57   -17 LegendNANA
09:00 -14.7 -15.9 90 0 1   100.62   -15 LegendNANA
10:00 -16.4 -17.7 90 28 2   100.66   -18 LegendNANA
11:00 -16.5 -18.1 88 28 2   100.72   -18 LegendNANA
12:00 -15.5 -16.6 91 32 1   100.77   -16 LegendNANA
13:00 -15.3 -16.5 90   0   100.81     LegendNANA
14:00 -15.2 -16.5 90 10 3   100.83   -17 LegendNANA
15:00 -15.1 -16.4 90   0   100.86     LegendNANA
16:00 -15.0 -16.3 90 26 2   100.87   -16 LegendNANA
17:00 -15.4 -16.8 89 4 1   100.88   -16 LegendNANA
18:00 -15.7 -17.0 89 8 1   100.88   -16 LegendNANA
19:00 -15.8 -17.1 89 4 1   100.88   -17 LegendNANA
20:00 -15.5 -16.8 90 35 1   100.89   -16 LegendNANA
21:00 -15.5 -16.8 89 34 1   100.86   -16 LegendNANA
22:00 -15.3 -16.6 90 31 2   100.82   -17 LegendNANA
23:00 -15.4 -16.7 90 10 2   100.86   -17 LegendNANA

Notes on Data Quality.

Legend

  • E = Estimated
  • M = Missing
  • NA = Not Available
  • ‡ = Partner data that is not subject to review by the National Climate Archives
Date modified: